カタログに戻る

COSMOS 864 DEB

運用中PO
NORAD 43294·DEBRIS·🇷🇺 Russia

打ち上げ Oct 29, 1976 から Plesetsk Cosmodrome

Loading…

次のパス (今後24時間)

TLE

最新Source: Space-Track

元期: Sep 13, 2026, 23:59 UTC

1 43294U 76108C   26256.99995672  .00000079  00000-0  65975-4 0  9993
2 43294  82.9367  82.7131 0028604 251.6363 108.1683 13.76090373637021

AllMySatでCOSMOS 864 DEBをリアルタイム追跡

Download on the App Store